Weather History for Omak, WA

Change the Weather History Date:

Tuesday, May 8, 2012

  Actual Average Record
Temperature  
Mean Temperature 62 °F 56 °F  
Max Temperature 79 °F 70 °F 89 °F (1949)
Min Temperature 44 °F 42 °F 30 °F (1963)
Degree Days  
Heating Degree Days 3 10  
Month to date heating degree days 119 85  
Since 1 July heating degree days 6403 6124  
Cooling Degree Days 0 0  
Month to date cooling degree days 0 0  
Year to date cooling degree days 2 1  
Growing Degree Days 12 (Base 50)    
Moisture  
Dew Point 36 °F    
Average Humidity 48    
Maximum Humidity 76    
Minimum Humidity 19    
Precipitation  
Precipitation 0.00 in 0.04 in 0.40 in (1972)
Month to date precipitation 0.35 0.32  
Year to date precipitation 5.61 5.53  
Sea Level Pressure  
Sea Level Pressure 29.99 in    
Wind  
Wind Speed 7 mph (SSW)    
Max Wind Speed 16 mph    
Max Gust Speed 21 mph    
Visibility 10 miles    
Events      
T = Trace of Precipitation, MM = Missing Value Source: NWS Daily Summary

Daily Weather History Graph

Daily Weather History Graph

Search for Another Location

Airport:

Trip Planner

Search our weather history database for the weather conditions in past years. The results will help you decide how hot, cold, wet, or windy it might be!

Date:

Astronomy

May. 08, 2012 Rise Set
Actual Time 5:26 AM PDT 8:23 PM PDT
Civil Twilight 4:50 AM PDT 8:59 PM PDT
Nautical Twilight 4:03 AM PDT 9:47 PM PDT
Astronomical Twilight 3:06 AM PDT 10:44 PM PDT
Moon 11:44 PM PDT (5/8) 7:32 AM PDT (5/8)
Length of Visible Light 16h 09m
Length of Day
14h 56m
Waning Gibbous, 90% of the Moon is Illuminated
May 8
Waning Gibbous
May 12
Last Quarter
May 20
New
May 28
First Quarter
Jun 4
Full

Hourly Weather History & Observations

Time (PDT) Temp. Windchill Dew Point Humidity Pressure Visibility Wind Dir Wind Speed Gust Speed Precip Events Conditions
12:53 AM 50.0 °F - 37.0 °F 61% 30.13 in 10.0 mi West 5.8 mph - N/A   Clear
1:53 AM 48.9 °F - 37.0 °F 64% 30.12 in 10.0 mi West 5.8 mph - N/A   Clear
2:53 AM 48.0 °F - 36.0 °F 63% 30.12 in 10.0 mi SW 5.8 mph - N/A   Clear
3:53 AM 46.9 °F - 37.0 °F 68% 30.11 in 10.0 mi WSW 5.8 mph - N/A   Clear
4:53 AM 48.0 °F - 37.0 °F 66% 30.11 in 10.0 mi SE 3.5 mph - N/A   Clear
5:53 AM 45.0 °F 43.5 °F 37.0 °F 74% 30.12 in 10.0 mi WSW 3.5 mph - N/A   Clear
6:53 AM 50.0 °F - 39.0 °F 66% 30.10 in 10.0 mi West 3.5 mph - N/A   Clear
7:53 AM 54.0 °F - 37.9 °F 55% 30.10 in 10.0 mi SE 3.5 mph - N/A   Clear
8:53 AM 57.0 °F - 37.9 °F 49% 30.09 in 10.0 mi SSE 4.6 mph - N/A   Clear
9:53 AM 62.1 °F - 41.0 °F 46% 30.06 in 10.0 mi SSE 3.5 mph - N/A   Clear
10:53 AM 66.0 °F - 39.9 °F 38% 30.04 in 10.0 mi South 6.9 mph - N/A   Clear
11:53 AM 70.0 °F - 39.9 °F 33% 30.01 in 10.0 mi SSW 5.8 mph - N/A   Clear
12:53 PM 73.9 °F - 39.9 °F 29% 29.98 in 10.0 mi SSW 8.1 mph 18.4 mph N/A   Clear
1:53 PM 75.9 °F - 39.0 °F 26% 29.95 in 10.0 mi South 10.4 mph - N/A   Clear
2:53 PM 78.1 °F - 37.0 °F 23% 29.92 in 10.0 mi SSW 11.5 mph - N/A   Clear
3:53 PM 77.0 °F - 36.0 °F 23% 29.89 in 10.0 mi SSW 10.4 mph - N/A   Clear
4:53 PM 79.0 °F - 34.0 °F 20% 29.87 in 10.0 mi South 15.0 mph 19.6 mph N/A   Clear
5:53 PM 78.1 °F - 34.0 °F 20% 29.86 in 10.0 mi SSW 9.2 mph 17.3 mph N/A   Clear
6:53 PM 75.0 °F - 30.0 °F 19% 29.84 in 10.0 mi South 11.5 mph - N/A   Clear
7:53 PM 70.0 °F - 28.0 °F 21% 29.84 in 10.0 mi South 9.2 mph - N/A   Clear
8:53 PM 64.9 °F - 28.9 °F 26% 29.85 in 10.0 mi SW 6.9 mph - N/A   Clear
9:53 PM 59.0 °F - 36.0 °F 42% 29.87 in 10.0 mi Calm Calm - N/A   Clear
10:53 PM 59.0 °F - 34.0 °F 39% 29.86 in 10.0 mi Calm Calm - N/A   Clear
11:53 PM 57.9 °F - 28.9 °F 33% 29.87 in 10.0 mi NW 4.6 mph - N/A   Clear